Change the Weather History Date:

Sunday, August 4, 2013

  Actual Average Record
Temperature  
Mean Temperature 61 °F -  
Max Temperature 71 °F 70 °F 82 °F (1978)
Min Temperature 51 °F 45 °F 33 °F (1996)
Degree Days  
Heating Degree Days 4    
Growing Degree Days 11 (Base 50)    
Moisture  
Dew Point 45 °F    
Average Humidity 59    
Maximum Humidity 81    
Minimum Humidity 30    
Precipitation  
Precipitation 0.00 in - - ()
Sea Level Pressure  
Sea Level Pressure 29.92 in    
Wind  
Wind Speed 12 mph (SSE)    
Max Wind Speed 17 mph    
Max Gust Speed 23 mph    
Visibility 10 miles    
Events Rain    
Averages and records for this station are not official NWS values.
T = Trace of Precipitation, MM = Missing Value Source: NWS Daily Summary

Daily Weather History Graph

Daily Weather History Graph

Search for Another Location

Airport or City:

Trip Planner

Search our weather history database for the weather conditions in past years. The results will help you decide how hot, cold, wet, or windy it might be!

Date:

Astronomy

Aug. 04, 2013 Rise Set
Actual Time 5:16 AM AKDT 10:17 PM AKDT
Civil Twilight 4:08 AM AKDT 11:23 PM AKDT
Nautical Twilight 2:20 AM AKDT 1:15 AM AKDT
Astronomical Twilight Sun does not rise Sun does not rise
Moon 3:20 AM AKDT (8/4) 8:42 PM AKDT (8/4)
Length of Visible Light 19h 15m
Length of Day
17h 01m
Waning Crescent, 4% of the Moon is Illuminated
Aug 4
Waning Crescent
Aug 6
New
Aug 14
First Quarter
Aug 20
Full
Aug 28
Last Quarter

Hourly Weather History & Observations

Time (AKDT) Temp. Dew Point Humidity Pressure Visibility Wind Dir Wind Speed Gust Speed Precip Events Conditions
12:53 AM 57.0 °F 46.0 °F 67% 29.91 in 10.0 mi SSE 16.1 mph - N/A   Mostly Cloudy
1:53 AM 55.0 °F 46.0 °F 72% 29.91 in 10.0 mi SSE 8.1 mph 17.3 mph N/A   Overcast
2:53 AM 54.0 °F 46.0 °F 75% 29.91 in 10.0 mi SSE 12.7 mph - N/A   Partly Cloudy
3:53 AM 54.0 °F 46.0 °F 75% 29.92 in 10.0 mi SSE 11.5 mph 20.7 mph N/A   Partly Cloudy
4:53 AM 52.0 °F 46.0 °F 80% 29.93 in 10.0 mi South 11.5 mph - N/A   Partly Cloudy
5:53 AM 52.0 °F 46.0 °F 80% 29.92 in 10.0 mi South 11.5 mph - N/A   Clear
6:53 AM 53.1 °F 46.9 °F 80% 29.93 in 10.0 mi South 13.8 mph - N/A   Overcast
7:53 AM 55.0 °F 46.9 °F 74% 29.93 in 10.0 mi SSE 12.7 mph - N/A   Clear
8:53 AM 55.0 °F 46.9 °F 74% 29.94 in 10.0 mi SSE 13.8 mph - N/A   Overcast
9:53 AM 57.0 °F 48.0 °F 72% 29.94 in 10.0 mi SSE 12.7 mph - N/A   Overcast
10:53 AM 57.0 °F 51.1 °F 81% 29.95 in 10.0 mi SSE 11.5 mph - 0.00 in Rain Light Rain
11:53 AM 60.1 °F 50.0 °F 69% 29.94 in 10.0 mi SSE 11.5 mph - 0.00 in   Overcast
12:53 PM 64.9 °F 48.0 °F 54% 29.92 in 10.0 mi SE 11.5 mph - N/A   Mostly Cloudy
1:53 PM 66.9 °F 46.0 °F 47% 29.91 in 10.0 mi South 13.8 mph 20.7 mph N/A   Clear
2:53 PM 70.0 °F 45.0 °F 41% 29.90 in 10.0 mi South 17.3 mph 23.0 mph N/A   Mostly Cloudy
3:53 PM 66.9 °F 43.0 °F 42% 29.89 in 10.0 mi South 12.7 mph - N/A   Overcast
4:53 PM 69.1 °F 43.0 °F 39% 29.89 in 10.0 mi South 13.8 mph - N/A   Scattered Clouds
5:53 PM 69.1 °F 42.1 °F 38% 29.88 in 10.0 mi SSE 11.5 mph - N/A   Mostly Cloudy
6:53 PM 68.0 °F 42.1 °F 39% 29.88 in 10.0 mi SSE 11.5 mph - N/A   Overcast
7:53 PM 68.0 °F 41.0 °F 37% 29.88 in 10.0 mi South 10.4 mph - N/A   Partly Cloudy
8:53 PM 64.9 °F 41.0 °F 42% 29.90 in 10.0 mi South 10.4 mph - N/A   Scattered Clouds
9:53 PM 61.0 °F 43.0 °F 52% 29.92 in 10.0 mi SSE 10.4 mph - N/A   Clear
10:53 PM 59.0 °F 44.1 °F 58% 29.94 in 10.0 mi South 9.2 mph - N/A   Mostly Cloudy
11:53 PM 55.0 °F 43.0 °F 64% 29.96 in 10.0 mi South 8.1 mph - N/A   Clear